SWA2528 KSAN-KLAS

Flight info

Callsign SWA2528
Flight time 0h 55m
Altitude 29000
Route PADRZ2 CHKNN SEBBY YELAH MISEN RNDRZ4
Aircraft B38M/M-SDE1FGHILORVWXY/HB1

Departure

Time 2026-05-07 05:12
Airport San Diego International Airport (KSAN)

Arrival

Time 2026-05-07 06:07
Airport Harry Reid International Airport (KLAS)
Time Latitude Longitude Altitude Speed Heading
2026-05-07 04:47 32.73317 -117.19566 25 ft 0 kts 230°
2026-05-07 05:03 32.73325 -117.19553 25 ft 4 kts 249°
2026-05-07 05:03 32.73325 -117.19525 24 ft 4 kts 287°
2026-05-07 05:03 32.73319 -117.19500 25 ft 4 kts 286°
2026-05-07 05:04 32.73312 -117.19470 25 ft 3 kts 285°
2026-05-07 05:04 32.73302 -117.19445 29 ft 4 kts 327°
2026-05-07 05:04 32.73285 -117.19446 26 ft 4 kts 31°
2026-05-07 05:04 32.73268 -117.19457 24 ft 0 kts 31°
2026-05-07 05:07 32.73273 -117.19454 24 ft 2 kts 31°
2026-05-07 05:08 32.73309 -117.19429 29 ft 10 kts 30°
2026-05-07 05:08 32.73339 -117.19318 23 ft 21 kts 103°
2026-05-07 05:08 32.73292 -117.19120 28 ft 27 kts 105°
2026-05-07 05:08 32.73239 -117.18902 26 ft 28 kts 106°
2026-05-07 05:09 32.73185 -117.18678 27 ft 29 kts 106°
2026-05-07 05:09 32.73130 -117.18452 27 ft 28 kts 105°
2026-05-07 05:09 32.73078 -117.18235 22 ft 26 kts 106°
2026-05-07 05:09 32.73026 -117.18028 22 ft 25 kts 105°
2026-05-07 05:10 32.72979 -117.17834 19 ft 24 kts 106°
2026-05-07 05:10 32.72951 -117.17701 19 ft 8 kts 91°
2026-05-07 05:10 32.72963 -117.17635 23 ft 8 kts 75°
2026-05-07 05:10 32.72989 -117.17585 24 ft 7 kts 24°
2026-05-07 05:11 32.73029 -117.17614 22 ft 9 kts 287°
2026-05-07 05:11 32.73034 -117.17635 21 ft 0 kts 285°
2026-05-07 05:11 32.73039 -117.17655 21 ft 9 kts 286°
2026-05-07 05:11 32.73123 -117.18005 19 ft 82 kts 286°
2026-05-07 05:12 32.73344 -117.18915 24 ft 145 kts 286°
2026-05-07 05:12 32.73664 -117.20213 271 ft 174 kts 286°
2026-05-07 05:12 32.74001 -117.21637 947 ft 183 kts 286°
2026-05-07 05:12 32.74441 -117.23142 1503 ft 202 kts 298°
2026-05-07 05:13 32.75283 -117.24545 1984 ft 222 kts 309°
2026-05-07 05:13 32.76274 -117.26060 2582 ft 237 kts 308°
2026-05-07 05:13 32.77289 -117.27639 3372 ft 248 kts 308°
2026-05-07 05:13 32.78366 -117.29332 3991 ft 263 kts 307°
2026-05-07 05:14 32.79466 -117.31071 4922 ft 264 kts 308°
2026-05-07 05:14 32.80594 -117.32817 5759 ft 268 kts 308°
2026-05-07 05:14 32.81738 -117.34586 6609 ft 272 kts 308°
2026-05-07 05:14 32.82901 -117.36386 7413 ft 277 kts 308°
2026-05-07 05:15 32.84080 -117.38214 8181 ft 281 kts 308°
2026-05-07 05:15 32.85279 -117.40074 8945 ft 285 kts 309°
2026-05-07 05:15 32.86497 -117.41963 9687 ft 290 kts 309°
2026-05-07 05:15 32.87733 -117.43883 10388 ft 297 kts 310°
2026-05-07 05:16 32.89032 -117.45900 10741 ft 316 kts 310°
2026-05-07 05:16 32.90406 -117.48040 11096 ft 333 kts 310°
2026-05-07 05:16 32.91844 -117.50276 11584 ft 346 kts 310°
2026-05-07 05:16 32.93309 -117.52560 12330 ft 348 kts 311°
2026-05-07 05:17 32.94787 -117.54864 13048 ft 353 kts 311°
2026-05-07 05:17 32.96285 -117.57198 13804 ft 356 kts 311°
2026-05-07 05:17 32.97797 -117.59557 14567 ft 360 kts 311°
2026-05-07 05:17 32.99321 -117.61938 15319 ft 364 kts 311°
2026-05-07 05:18 33.00865 -117.64347 16049 ft 368 kts 311°
2026-05-07 05:18 33.02424 -117.66784 16747 ft 372 kts 311°
2026-05-07 05:18 33.03991 -117.69235 17431 ft 375 kts 311°
2026-05-07 05:18 33.05580 -117.71720 18075 ft 378 kts 312°
2026-05-07 05:19 33.07389 -117.73966 18683 ft 375 kts 325°
2026-05-07 05:19 33.09392 -117.75991 19271 ft 380 kts 323°
2026-05-07 05:19 33.11406 -117.78055 19902 ft 383 kts 324°
2026-05-07 05:19 33.13442 -117.80131 20470 ft 387 kts 324°
2026-05-07 05:20 33.15492 -117.82221 21047 ft 389 kts 324°
2026-05-07 05:20 33.17561 -117.84329 21597 ft 392 kts 324°
2026-05-07 05:20 33.19677 -117.86390 22105 ft 393 kts 330°
2026-05-07 05:20 33.21950 -117.88227 22603 ft 396 kts 330°
2026-05-07 05:21 33.24228 -117.90102 23126 ft 399 kts 329°
2026-05-07 05:21 33.28810 -117.93928 24099 ft 405 kts 329°
2026-05-07 05:21 33.31123 -117.95871 24570 ft 407 kts 329°
2026-05-07 05:22 33.33451 -117.97829 25018 ft 411 kts 329°
2026-05-07 05:22 33.35795 -117.99801 25459 ft 414 kts 329°
2026-05-07 05:22 33.38157 -118.01792 25874 ft 417 kts 329°
2026-05-07 05:22 33.40533 -118.03793 26307 ft 419 kts 329°
2026-05-07 05:23 33.42922 -118.05808 26708 ft 422 kts 329°
2026-05-07 05:23 33.45326 -118.07837 27093 ft 424 kts 329°
2026-05-07 05:23 33.46926 -118.09188 27355 ft 426 kts 329°
2026-05-07 05:23 33.49355 -118.11240 27726 ft 429 kts 329°
2026-05-07 05:24 33.51803 -118.13310 28087 ft 432 kts 329°
2026-05-07 05:24 33.54263 -118.15392 28462 ft 434 kts 329°
2026-05-07 05:24 33.56742 -118.17490 28826 ft 437 kts 329°
2026-05-07 05:24 33.59230 -118.19598 29081 ft 441 kts 329°
2026-05-07 05:25 33.62574 -118.22434 29114 ft 446 kts 329°
2026-05-07 05:25 33.66849 -118.25955 29093 ft 441 kts 336°
2026-05-07 05:25 33.69665 -118.27281 29094 ft 432 kts 351°
2026-05-07 05:26 33.72630 -118.27652 29102 ft 427 kts
2026-05-07 05:26 33.75541 -118.27110 29100 ft 423 kts 18°
2026-05-07 05:26 33.78246 -118.25751 29096 ft 421 kts 30°
2026-05-07 05:26 33.80668 -118.23785 29083 ft 422 kts 41°
2026-05-07 05:27 33.82705 -118.21247 29108 ft 423 kts 48°
2026-05-07 05:27 33.86391 -118.15718 29108 ft 424 kts 52°
2026-05-07 05:28 33.89853 -118.10055 29111 ft 424 kts 53°
2026-05-07 05:28 33.93291 -118.04287 29111 ft 424 kts 53°
2026-05-07 05:29 33.96735 -117.98466 29105 ft 424 kts 53°
2026-05-07 05:29 34.00153 -117.92676 29100 ft 424 kts 53°
2026-05-07 05:30 34.03544 -117.86921 29105 ft 424 kts 53°
2026-05-07 05:30 34.06954 -117.81125 29110 ft 424 kts 53°
2026-05-07 05:31 34.10557 -117.75498 29132 ft 423 kts 49°
2026-05-07 05:31 34.14333 -117.70046 29119 ft 423 kts 49°
2026-05-07 05:32 34.18081 -117.64566 29108 ft 423 kts 50°
2026-05-07 05:32 34.21822 -117.59079 29124 ft 423 kts 50°
2026-05-07 05:33 34.25565 -117.53580 29130 ft 424 kts 50°
2026-05-07 05:33 34.29306 -117.48075 29117 ft 423 kts 50°
2026-05-07 05:34 34.33039 -117.42574 29125 ft 423 kts 50°
2026-05-07 05:34 34.36775 -117.37059 29129 ft 423 kts 50°
2026-05-07 05:35 34.40507 -117.31541 29128 ft 423 kts 50°
2026-05-07 05:35 34.44227 -117.26033 29129 ft 422 kts 50°
2026-05-07 05:36 34.47948 -117.20516 29137 ft 422 kts 50°
2026-05-07 05:36 34.51662 -117.14999 29155 ft 422 kts 50°
2026-05-07 05:37 34.55376 -117.09474 29163 ft 422 kts 50°
2026-05-07 05:37 34.59084 -117.03949 29149 ft 422 kts 50°
2026-05-07 05:38 34.62782 -116.98432 29145 ft 422 kts 50°
2026-05-07 05:38 34.66475 -116.92911 29128 ft 422 kts 50°
2026-05-07 05:39 34.70175 -116.87373 29101 ft 422 kts 50°
2026-05-07 05:39 34.73870 -116.81833 29078 ft 421 kts 50°
2026-05-07 05:40 34.77556 -116.76297 29047 ft 421 kts 50°
2026-05-07 05:40 34.81242 -116.70757 29050 ft 421 kts 50°
2026-05-07 05:41 34.84937 -116.65219 29041 ft 421 kts 47°
2026-05-07 05:41 34.89384 -116.60659 28640 ft 414 kts 39°
2026-05-07 05:41 34.91604 -116.58490 28391 ft 403 kts 38°
2026-05-07 05:42 34.93765 -116.56391 28094 ft 393 kts 38°
2026-05-07 05:42 34.95895 -116.54324 27595 ft 390 kts 38°
2026-05-07 05:42 34.98011 -116.52271 27047 ft 388 kts 38°
2026-05-07 05:42 35.00119 -116.50224 26505 ft 386 kts 38°
2026-05-07 05:43 35.02216 -116.48188 25963 ft 385 kts 38°
2026-05-07 05:43 35.04301 -116.46160 25432 ft 383 kts 38°
2026-05-07 05:43 35.06379 -116.44139 24897 ft 381 kts 38°
2026-05-07 05:43 35.08444 -116.42128 24375 ft 379 kts 38°
2026-05-07 05:44 35.10448 -116.40068 24002 ft 374 kts 45°
2026-05-07 05:44 35.12213 -116.37702 23827 ft 379 kts 46°
2026-05-07 05:44 35.14032 -116.35342 23665 ft 383 kts 45°
2026-05-07 05:44 35.15869 -116.32984 23496 ft 383 kts 45°
2026-05-07 05:45 35.17715 -116.30630 23316 ft 383 kts 45°
2026-05-07 05:45 35.19558 -116.28284 23130 ft 382 kts 45°
2026-05-07 05:45 35.21400 -116.25941 22958 ft 381 kts 45°
2026-05-07 05:45 35.23196 -116.23561 22749 ft 380 kts 47°
2026-05-07 05:46 35.24930 -116.21179 22569 ft 379 kts 47°
2026-05-07 05:46 35.26691 -116.18774 22400 ft 379 kts 47°
2026-05-07 05:46 35.28449 -116.16374 22218 ft 378 kts 47°
2026-05-07 05:46 35.30205 -116.13977 22037 ft 377 kts 47°
2026-05-07 05:47 35.31954 -116.11587 21847 ft 376 kts 47°
2026-05-07 05:47 35.33692 -116.09199 21640 ft 375 kts 47°
2026-05-07 05:47 35.35427 -116.06817 21476 ft 375 kts 47°
2026-05-07 05:47 35.37160 -116.04434 21302 ft 374 kts 47°
2026-05-07 05:48 35.38885 -116.02061 21121 ft 373 kts 47°
2026-05-07 05:48 35.40612 -115.99684 20947 ft 372 kts 47°
2026-05-07 05:48 35.42329 -115.97319 20768 ft 371 kts 47°
2026-05-07 05:48 35.44047 -115.94952 20589 ft 371 kts 47°
2026-05-07 05:49 35.45757 -115.92592 20413 ft 370 kts 47°
2026-05-07 05:49 35.47445 -115.90263 20252 ft 360 kts 47°
2026-05-07 05:49 35.49082 -115.88003 20071 ft 348 kts 47°
2026-05-07 05:49 35.50645 -115.85842 19937 ft 328 kts 47°
2026-05-07 05:50 35.52132 -115.83787 19785 ft 318 kts 47°
2026-05-07 05:50 35.53595 -115.81764 19624 ft 316 kts 47°
2026-05-07 05:50 35.55054 -115.79742 19449 ft 316 kts 47°
2026-05-07 05:50 35.56507 -115.77729 19294 ft 315 kts 47°
2026-05-07 05:51 35.57958 -115.75717 19146 ft 314 kts 47°
2026-05-07 05:51 35.59412 -115.73724 18883 ft 313 kts 47°
2026-05-07 05:51 35.60867 -115.71765 18687 ft 310 kts 47°
2026-05-07 05:51 35.62324 -115.69799 18466 ft 311 kts 47°
2026-05-07 05:52 35.63776 -115.67838 18200 ft 309 kts 47°
2026-05-07 05:52 35.65224 -115.65879 17910 ft 309 kts 47°
2026-05-07 05:52 35.66666 -115.63928 17623 ft 307 kts 47°
2026-05-07 05:52 35.68102 -115.61984 17324 ft 307 kts 47°
2026-05-07 05:53 35.69518 -115.60065 16972 ft 305 kts 47°
2026-05-07 05:53 35.70959 -115.58112 16661 ft 302 kts 46°
2026-05-07 05:53 35.72354 -115.56240 16371 ft 300 kts 43°
2026-05-07 05:53 35.74042 -115.54767 16024 ft 297 kts 29°
2026-05-07 05:54 35.75833 -115.53498 15742 ft 298 kts 30°
2026-05-07 05:54 35.77633 -115.52222 15464 ft 299 kts 29°
2026-05-07 05:54 35.79431 -115.50956 15181 ft 297 kts 29°
2026-05-07 05:54 35.81217 -115.49701 14896 ft 294 kts 29°
2026-05-07 05:55 35.82993 -115.48454 14655 ft 294 kts 29°
2026-05-07 05:55 35.84773 -115.47205 14372 ft 294 kts 29°
2026-05-07 05:55 35.86544 -115.45962 14080 ft 291 kts 28°
2026-05-07 05:55 35.88294 -115.44733 13793 ft 290 kts 28°
2026-05-07 05:56 35.90050 -115.43499 13532 ft 290 kts 28°
2026-05-07 05:56 35.91802 -115.42277 13245 ft 289 kts 28°
2026-05-07 05:56 35.93545 -115.41060 12978 ft 287 kts 28°
2026-05-07 05:56 35.95285 -115.39846 12733 ft 287 kts 28°
2026-05-07 05:57 35.97016 -115.38636 12463 ft 285 kts 28°
2026-05-07 05:57 35.98730 -115.37439 12193 ft 282 kts 28°
2026-05-07 05:57 36.00276 -115.35948 11873 ft 287 kts 48°
2026-05-07 05:57 36.01205 -115.33758 11548 ft 294 kts 72°
2026-05-07 05:58 36.01359 -115.31228 11272 ft 300 kts 91°
2026-05-07 05:58 36.01222 -115.28655 11007 ft 299 kts 90°
2026-05-07 05:58 36.01092 -115.26123 10703 ft 290 kts 91°
2026-05-07 05:58 36.00961 -115.23692 10433 ft 278 kts 91°
2026-05-07 05:59 36.00831 -115.21358 10178 ft 267 kts 91°
2026-05-07 05:59 36.00705 -115.19121 9924 ft 256 kts 91°
2026-05-07 05:59 36.00582 -115.16961 9701 ft 250 kts 92°
2026-05-07 05:59 36.00460 -115.14835 9472 ft 246 kts 92°
2026-05-07 06:00 36.00339 -115.12728 9238 ft 247 kts 92°
2026-05-07 06:00 36.00218 -115.10614 9026 ft 247 kts 92°
2026-05-07 06:00 36.00095 -115.08498 8775 ft 248 kts 92°
2026-05-07 06:00 35.99975 -115.06408 8526 ft 247 kts 92°
2026-05-07 06:01 35.99937 -115.04267 8259 ft 246 kts 89°
2026-05-07 06:01 35.99917 -115.02183 8014 ft 245 kts 90°
2026-05-07 06:01 35.99906 -115.00083 7760 ft 245 kts 89°
2026-05-07 06:01 35.99898 -114.97967 7414 ft 247 kts 89°
2026-05-07 06:02 35.99887 -114.95846 7078 ft 248 kts 89°
2026-05-07 06:02 35.99950 -114.93717 6704 ft 249 kts 76°
2026-05-07 06:02 36.00734 -114.91844 6213 ft 248 kts 44°
2026-05-07 06:02 36.02141 -114.90665 5892 ft 238 kts 27°
2026-05-07 06:03 36.03686 -114.90156 5758 ft 230 kts 358°
2026-05-07 06:03 36.05215 -114.90686 5488 ft 232 kts 331°
2026-05-07 06:03 36.06435 -114.91959 5188 ft 232 kts 304°
2026-05-07 06:03 36.07115 -114.93738 4953 ft 227 kts 287°
2026-05-07 06:04 36.07390 -114.95585 4824 ft 212 kts 275°
2026-05-07 06:04 36.07407 -114.97409 4521 ft 211 kts 269°
2026-05-07 06:04 36.07374 -114.99214 4221 ft 209 kts 270°
2026-05-07 06:04 36.07369 -115.00959 3935 ft 197 kts 271°
2026-05-07 06:05 36.07369 -115.02568 3711 ft 176 kts 271°
2026-05-07 06:05 36.07369 -115.04007 3459 ft 163 kts 271°
2026-05-07 06:05 36.07369 -115.05375 3245 ft 162 kts 270°
2026-05-07 06:05 36.07368 -115.06747 3028 ft 161 kts 270°
2026-05-07 06:06 36.07367 -115.08138 2816 ft 162 kts 269°
2026-05-07 06:06 36.07364 -115.09510 2615 ft 159 kts 269°
2026-05-07 06:06 36.07363 -115.10864 2386 ft 155 kts 270°
2026-05-07 06:06 36.07368 -115.12181 2181 ft 154 kts 269°
2026-05-07 06:07 36.07366 -115.13478 2076 ft 139 kts 270°
2026-05-07 06:07 36.07366 -115.14367 2092 ft 73 kts 270°
2026-05-07 06:07 36.07396 -115.14867 2098 ft 43 kts 290°
2026-05-07 06:07 36.07508 -115.15104 2103 ft 25 kts 316°
2026-05-07 06:08 36.07641 -115.15197 2113 ft 21 kts 335°
2026-05-07 06:08 36.07742 -115.15255 2108 ft 15 kts 338°
2026-05-07 06:08 36.07807 -115.15181 2103 ft 15 kts 91°
2026-05-07 06:08 36.07801 -115.15040 2102 ft 17 kts 94°
2026-05-07 06:09 36.07790 -115.14883 2102 ft 19 kts 95°
2026-05-07 06:09 36.07804 -115.14734 2100 ft 17 kts 50°
2026-05-07 06:09 36.07857 -115.14626 2099 ft 12 kts 47°
2026-05-07 06:09 36.07908 -115.14615 2100 ft 10 kts 353°
2026-05-07 06:10 36.07957 -115.14622 2100 ft 3 kts 354°
2026-05-07 06:10 36.07967 -115.14623 2100 ft 0 kts 354°
2026-05-07 06:10 36.07968 -115.14623 2100 ft 0 kts 354°